Montpelier, VT

11:18 PM EST on January 19, 2017 (GMT -0500)
Knapp State

Weather History for KMPV - April, 2014

Change the Weather History Date:

Thursday, April 17, 2014

  Actual Average Record
Temperature  
Mean Temperature 30 °F 43 °F  
Max Temperature 45 °F 54 °F 86 °F (1976)
Min Temperature 14 °F 32 °F 14 °F (2014)
Degree Days  
Heating Degree Days 35 22  
Month to date heating degree days 452 433  
Since 1 July heating degree days 8066 7458  
Cooling Degree Days 0 0  
Month to date cooling degree days 0 0  
Year to date cooling degree days 0 0  
Moisture  
Dew Point 14 °F    
Average Humidity 61    
Maximum Humidity 96    
Minimum Humidity 25    
Precipitation  
Precipitation 0.00 in 0.09 in 0.51 in (1967)
Month to date precipitation 1.34 1.48  
Year to date precipitation 8.70 8.36  
Sea Level Pressure  
Sea Level Pressure 30.75 in    
Wind  
Wind Speed 6 mph (SSE)    
Max Wind Speed 18 mph    
Max Gust Speed 25 mph    
Visibility 10 miles    
Events      
T = Trace of Precipitation, MM = Missing Value Source: NWS Daily Summary

Daily Weather History Graph

Daily Weather History Graph

Search for Another Location

Airport or City:

Trip Planner

Search our weather history database for the weather conditions in past years. The results will help you decide how hot, cold, wet, or windy it might be!

Date:

Astronomy

Apr. 17, 2014 Rise Set
Actual Time 6:03 AM EDT 7:36 PM EDT
Civil Twilight 5:33 AM EDT 8:07 PM EDT
Nautical Twilight 4:56 AM EDT 8:44 PM EDT
Astronomical Twilight 4:17 AM EDT 9:23 PM EDT
Moon 10:24 PM EDT (4/17) 7:29 AM EDT (4/17)
Length of Visible Light 14h 34m
Length of Day
13h 33m
Waning Gibbous, 94% of the Moon is Illuminated
Apr 17
Waning Gibbous
Apr 22
Last Quarter
Apr 29
New
May 6
First Quarter
May 14
Full

Hourly Weather History & Observations

Time (EDT) Temp. Windchill Dew Point Humidity Pressure Visibility Wind Dir Wind Speed Gust Speed Precip Events Conditions
12:51 AM 18.0 °F - 14.0 °F 84% 30.73 in 10.0 mi Calm Calm - N/A   Clear
1:51 AM 17.6 °F 12.3 °F 12.2 °F 79% 30.67 in 10.0 mi South 3.5 mph - N/A   Clear
2:51 AM 17.1 °F - 12.9 °F 84% 30.75 in 10.0 mi Calm Calm - N/A   Clear
3:51 AM 16.0 °F - 12.9 °F 88% 30.77 in 10.0 mi Calm Calm - N/A   Clear
4:51 AM 15.8 °F - 12.2 °F 86% 30.72 in 10.0 mi Calm Calm - N/A   Clear
5:51 AM 14.0 °F 8.2 °F 12.0 °F 92% 30.80 in 10.0 mi South 3.5 mph - N/A   Clear
6:51 AM 17.1 °F - 15.1 °F 92% 30.83 in 10.0 mi Calm Calm - N/A   Clear
7:51 AM 21.2 °F - 17.6 °F 86% 30.77 in 10.0 mi Calm Calm - N/A   Clear
8:51 AM 25.0 °F - 18.0 °F 75% 30.85 in 10.0 mi Calm Calm - N/A   Clear
9:51 AM 30.9 °F 21.7 °F 12.9 °F 47% 30.84 in 10.0 mi South 11.5 mph - N/A   Clear
10:51 AM 34.0 °F 27.2 °F 12.9 °F 42% 30.84 in 10.0 mi South 8.1 mph - N/A   Clear
11:51 AM 35.1 °F 27.9 °F 12.0 °F 39% 30.82 in 10.0 mi South 9.2 mph - N/A   Clear
12:51 PM 37.4 °F 32.1 °F 12.2 °F 36% 30.75 in 10.0 mi SE 6.9 mph - N/A   Clear
1:51 PM 39.9 °F 34.5 °F 10.9 °F 31% 30.78 in 10.0 mi SE 8.1 mph - N/A   Clear
2:51 PM 42.1 °F 36.1 °F 12.9 °F 31% 30.76 in 10.0 mi SSE 10.4 mph - N/A   Clear
3:51 PM 44.1 °F 40.8 °F 12.9 °F 28% 30.73 in 10.0 mi South 5.8 mph - N/A   Clear
4:51 PM 44.1 °F 38.6 °F 10.9 °F 26% 30.72 in 10.0 mi SE 10.4 mph - N/A   Clear
5:51 PM 44.1 °F 38.1 °F 12.9 °F 28% 30.71 in 10.0 mi SSE 11.5 mph - N/A   Clear
6:51 PM 42.1 °F 36.1 °F 14.0 °F 32% 30.71 in 10.0 mi SSE 10.4 mph - N/A   Clear
7:51 PM 37.0 °F 32.4 °F 16.0 °F 42% 30.70 in 10.0 mi SSE 5.8 mph - N/A   Clear
8:51 PM 36.0 °F 29.6 °F 17.1 °F 46% 30.69 in 10.0 mi SSE 8.1 mph - N/A   Clear
9:51 PM 35.1 °F 25.2 °F 16.0 °F 46% 30.69 in 10.0 mi SSE 16.1 mph - N/A   Clear
10:51 PM 33.8 °F 26.4 °F 17.6 °F 52% 30.64 in 10.0 mi South 9.2 mph - N/A   Clear
11:51 PM 30.2 °F 24.3 °F 14.0 °F 51% 30.64 in 10.0 mi Variable 5.8 mph - N/A   Clear